Lone Rock, WI

4:32 PM CDT on April 25, 2017 (GMT -0500)
Tri-County Regional

Weather History for KLNR - April, 2012

Change the Weather History Date:

Monday, April 2, 2012

  Actual Average Record
Temperature  
Mean Temperature 56 °F -  
Max Temperature 68 °F 50 °F 75 °F (1999)
Min Temperature 45 °F 31 °F 21 °F (2008)
Degree Days  
Heating Degree Days 8    
Growing Degree Days 6 (Base 50)    
Moisture  
Dew Point 38 °F    
Average Humidity 57    
Maximum Humidity 74    
Minimum Humidity 37    
Precipitation  
Precipitation 0.00 in - - ()
Sea Level Pressure  
Sea Level Pressure 29.84 in    
Wind  
Wind Speed 13 mph (East)    
Max Wind Speed 21 mph    
Max Gust Speed 28 mph    
Visibility 10 miles    
Events      
Averages and records for this station are not official NWS values.
T = Trace of Precipitation, MM = Missing Value Source: NWS Daily Summary

Daily Weather History Graph

Daily Weather History Graph

Search for Another Location

Airport or City:

Trip Planner

Search our weather history database for the weather conditions in past years. The results will help you decide how hot, cold, wet, or windy it might be!

Date:

Astronomy

Apr. 02, 2012 Rise Set
Actual Time 6:39 AM CDT 7:28 PM CDT
Civil Twilight 6:11 AM CDT 7:57 PM CDT
Nautical Twilight 5:36 AM CDT 8:32 PM CDT
Astronomical Twilight 5:01 AM CDT 9:07 PM CDT
Moon 2:58 PM CDT (4/2) 4:00 AM CDT (4/2)
Length of Visible Light 13h 46m
Length of Day
12h 48m
Waxing Gibbous, 78% of the Moon is Illuminated
Apr 2
Waxing Gibbous
Apr 6
Full
Apr 13
Last Quarter
Apr 21
New
Apr 29
First Quarter

Hourly Weather History & Observations

Time (CDT) Temp. Windchill Dew Point Humidity Pressure Visibility Wind Dir Wind Speed Gust Speed Precip Events Conditions
12:56 AM 46.9 °F - 35.1 °F 63% 29.78 in 10.0 mi East 10.4 mph - N/A   Clear
1:56 AM 46.0 °F 40.6 °F 36.0 °F 68% 29.80 in 10.0 mi East 11.5 mph - N/A   Clear
2:56 AM 45.0 °F 39.7 °F 37.0 °F 74% 29.80 in 10.0 mi East 10.4 mph - N/A   Clear
3:56 AM 45.0 °F 40.6 °F 36.0 °F 71% 29.81 in 10.0 mi East 8.1 mph - N/A   Clear
4:56 AM 46.0 °F 39.6 °F 34.0 °F 63% 29.81 in 10.0 mi East 15.0 mph - N/A   Clear
5:56 AM 45.0 °F 38.9 °F 35.1 °F 68% 29.82 in 10.0 mi East 12.7 mph 20.7 mph N/A   Clear
6:56 AM 46.0 °F 39.9 °F 37.0 °F 71% 29.85 in 10.0 mi East 13.8 mph - N/A   Mostly Cloudy
7:56 AM 46.9 °F - 37.9 °F 71% 29.87 in 10.0 mi East 13.8 mph - N/A   Scattered Clouds
8:56 AM 48.9 °F - 39.9 °F 71% 29.89 in 10.0 mi East 15.0 mph - N/A   Mostly Cloudy
9:56 AM 52.0 °F - 41.0 °F 66% 29.89 in 10.0 mi East 16.1 mph - N/A   Mostly Cloudy
10:56 AM 55.9 °F - 39.9 °F 55% 29.88 in 10.0 mi East 17.3 mph - N/A   Overcast
11:56 AM 60.1 °F - 41.0 °F 49% 29.87 in 10.0 mi East 20.7 mph 27.6 mph N/A   Overcast
12:56 PM 63.0 °F - 39.0 °F 41% 29.86 in 10.0 mi East 18.4 mph 25.3 mph N/A   Mostly Cloudy
1:56 PM 64.0 °F - 37.9 °F 38% 29.85 in 10.0 mi ESE 17.3 mph - N/A   Overcast
2:56 PM 66.9 °F - 39.9 °F 37% 29.83 in 10.0 mi East 17.3 mph - N/A   Overcast
3:56 PM 68.0 °F - 41.0 °F 37% 29.81 in 10.0 mi East 19.6 mph 25.3 mph N/A   Clear
4:56 PM 66.0 °F - 39.9 °F 38% 29.80 in 10.0 mi East 16.1 mph - N/A   Partly Cloudy
5:56 PM 64.9 °F - 41.0 °F 42% 29.81 in 10.0 mi ESE 15.0 mph - N/A   Partly Cloudy
6:56 PM 62.1 °F - 39.9 °F 44% 29.82 in 10.0 mi East 13.8 mph 21.9 mph N/A   Clear
7:56 PM 55.9 °F - 39.9 °F 55% 29.83 in 10.0 mi East 12.7 mph - N/A   Clear
8:56 PM 54.0 °F - 39.0 °F 57% 29.83 in 10.0 mi East 12.7 mph - N/A   Clear
9:56 PM 51.1 °F - 39.0 °F 63% 29.85 in 10.0 mi East 8.1 mph - N/A   Clear
10:56 PM 51.1 °F - 37.9 °F 61% 29.86 in 10.0 mi East 10.4 mph - N/A   Clear
11:56 PM 52.0 °F - 37.0 °F 57% 29.86 in 10.0 mi East 8.1 mph - N/A   Overcast